| time (UTC) | temp F | wind direction | speed MPH | gust MPH | rain 1hr in | rain 24hr in | rain mn in | humidity % | barometer mb |
| 20260503002729 | 76 | 321 | 0.0 | 2.0 | 0.00 | 0.00 | 0.00 | ||
| 20260503002216 | 75 | 335 | 0.0 | 0.0 | 0.00 | 0.00 | 0.00 | ||
| 20260503001703 | 75 | 94 | 0.0 | 3.0 | 0.00 | 0.00 | 0.00 | ||
| 20260503001151 | 76 | 318 | 0.0 | 6.0 | 0.00 | 0.00 | 0.00 | ||
| 20260502235612 | 76 | 316 | 0.0 | 5.0 | 0.00 | 0.00 | 0.00 | ||
| 20260502235059 | 76 | 330 | 0.0 | 5.0 | 0.00 | 0.00 | 0.00 | ||
| 20260502234546 | 76 | 320 | 1.0 | 6.0 | 0.00 | 0.00 | 0.00 | ||
| 20260502234033 | 76 | 332 | 0.0 | 0.0 | 0.00 | 0.00 | 0.00 | ||
| 20260502233520 | 76 | 318 | 3.0 | 7.0 | 0.00 | 0.00 | 0.00 | ||
| 20260502233008 | 76 | 317 | 2.0 | 8.0 | 0.00 | 0.00 | 0.00 | ||
| 20260502232632 | 76 | 331 | 0.0 | 3.0 | 0.00 | 0.00 | 0.00 | ||
| 20260502232455 | 76 | 331 | 0.0 | 3.0 | 0.00 | 0.00 | 0.00 | ||
| 20260502231942 | 76 | 313 | 0.0 | 6.0 | 0.00 | 0.00 | 0.00 | ||
| 20260502231429 | 76 | 320 | 0.0 | 12.0 | 0.00 | 0.00 | 0.00 | ||
| 20260502230916 | 76 | 327 | 0.0 | 6.0 | 0.00 | 0.00 | 0.00 | ||
| 20260502230404 | 76 | 321 | 0.0 | 0.0 | 0.00 | 0.00 | 0.00 | ||
| 20260502225850 | 76 | 310 | 0.0 | 8.0 | 0.00 | 0.00 | 0.00 | ||
| 20260502225338 | 76 | 305 | 0.0 | 0.0 | 0.00 | 0.00 | 0.00 | ||
| 20260502224825 | 76 | 310 | 0.0 | 6.0 | 0.00 | 0.00 | 0.00 | ||
| 20260502223759 | 76 | 320 | 0.0 | 3.0 | 0.00 | 0.00 | 0.00 | ||
| 20260502223246 | 77 | 316 | 0.0 | 1.0 | 0.00 | 0.00 | 0.00 | ||
| 20260502222734 | 76 | 337 | 0.0 | 1.0 | 0.00 | 0.00 | 0.00 | ||
| 20260502222221 | 76 | 328 | 0.0 | 0.0 | 0.00 | 0.00 | 0.00 | ||
| 20260502221708 | 76 | 315 | 0.0 | 6.0 | 0.00 | 0.00 | 0.00 | ||
| 20260502221155 | 76 | 318 | 0.0 | 5.0 | 0.00 | 0.00 | 0.00 | ||
| 20260502220642 | 76 | 322 | 0.0 | 2.0 | 0.00 | 0.00 | 0.00 | ||
| 20260502220130 | 75 | 157 | 0.0 | 3.0 | 0.00 | 0.00 | 0.00 | ||
| 20260502215616 | 74 | 315 | 0.0 | 6.0 | 0.00 | 0.00 | 0.00 | ||
| 20260502215104 | 74 | 317 | 0.0 | 11.0 | 0.00 | 0.00 | 0.00 | ||
| 20260502214551 | 74 | 337 | 0.0 | 0.0 | 0.00 | 0.00 | 0.00 | ||
| 20260502214038 | 73 | 326 | 0.0 | 0.0 | 0.00 | 0.00 | 0.00 | ||
| 20260502213525 | 73 | 315 | 0.0 | 0.0 | 0.00 | 0.00 | 0.00 | ||
| 20260502213012 | 72 | 321 | 0.0 | 4.0 | 0.00 | 0.00 | 0.00 | ||
| 20260502212500 | 72 | 316 | 0.0 | 7.0 | 0.00 | 0.00 | 0.00 | ||
| 20260502211947 | 72 | 315 | 0.0 | 6.0 | 0.00 | 0.00 | 0.00 | ||
| 20260502211434 | 71 | 337 | 0.0 | 0.0 | 0.00 | 0.00 | 0.00 | ||
| 20260502210921 | 71 | 342 | 0.0 | 4.0 | 0.00 | 0.00 | 0.00 | ||
| 20260502210408 | 70 | 325 | 0.0 | 5.0 | 0.00 | 0.00 | 0.00 | ||
| 20260502205856 | 70 | 318 | 0.0 | 1.0 | 0.00 | 0.00 | 0.00 | ||
| 20260502205342 | 70 | 328 | 0.0 | 4.0 | 0.00 | 0.00 | 0.00 | ||
| 20260502204831 | 70 | 323 | 0.0 | 6.0 | 0.00 | 0.00 | 0.00 | ||
| 20260502204317 | 70 | 315 | 0.0 | 7.0 | 0.00 | 0.00 | 0.00 | ||
| 20260502203804 | 70 | 329 | 0.0 | 2.0 | 0.00 | 0.00 | 0.00 | ||
| 20260502203251 | 70 | 321 | 0.0 | 5.0 | 0.00 | 0.00 | 0.00 | ||
| 20260502202738 | 70 | 331 | 0.0 | 6.0 | 0.00 | 0.00 | 0.00 | ||
| 20260502202226 | 70 | 340 | 1.0 | 2.0 | 0.00 | 0.00 | 0.00 | ||
| 20260502201713 | 70 | 318 | 1.0 | 4.0 | 0.00 | 0.00 | 0.00 | ||
| 20260502201200 | 69 | 356 | 0.0 | 0.0 | 0.00 | 0.00 | 0.00 | ||
| 20260502200647 | 69 | 316 | 0.0 | 6.0 | 0.00 | 0.00 | 0.00 | ||
| 20260502200135 | 69 | 320 | 0.0 | 7.0 | 0.00 | 0.00 | 0.00 | ||
| 20260502195622 | 68 | 315 | 0.0 | 5.0 | 0.00 | 0.00 | 0.00 | ||
| 20260502195108 | 68 | 312 | 0.0 | 6.0 | 0.00 | 0.00 | 0.00 | ||
| 20260502194556 | 68 | 329 | 0.0 | 0.0 | 0.00 | 0.00 | 0.00 | ||
| 20260502194043 | 67 | 318 | 0.0 | 7.0 | 0.00 | 0.00 | 0.00 | ||
| 20260502193530 | 67 | 316 | 0.0 | 7.0 | 0.00 | 0.00 | 0.00 | ||
| 20260502193017 | 68 | 319 | 2.0 | 7.0 | 0.00 | 0.00 | 0.00 | ||
| 20260502192505 | 67 | 321 | 3.0 | 6.0 | 0.00 | 0.00 | 0.00 | ||
| 20260502191951 | 67 | 319 | 0.0 | 6.0 | 0.00 | 0.00 | 0.00 | ||
| 20260502191439 | 67 | 313 | 0.0 | 8.0 | 0.00 | 0.00 | 0.00 | ||
| 20260502190926 | 67 | 315 | 1.0 | 7.0 | 0.00 | 0.00 | 0.00 | ||
| 20260502190413 | 67 | 327 | 0.0 | 4.0 | 0.00 | 0.00 | 0.00 | ||
| 20260502185900 | 67 | 321 | 0.0 | 5.0 | 0.00 | 0.00 | 0.00 | ||
| 20260502185347 | 67 | 315 | 3.0 | 4.0 | 0.00 | 0.00 | 0.00 | ||
| 20260502184834 | 67 | 328 | 4.0 | 5.0 | 0.00 | 0.00 | 0.00 | ||
| 20260502184321 | 67 | 318 | 0.0 | 3.0 | 0.00 | 0.00 | 0.00 | ||
| 20260502183809 | 67 | 321 | 0.0 | 8.0 | 0.00 | 0.00 | 0.00 | ||
| 20260502183256 | 67 | 323 | 1.0 | 5.0 | 0.00 | 0.00 | 0.00 | ||
| 20260502182743 | 67 | 324 | 1.0 | 2.0 | 0.00 | 0.00 | 0.00 | ||
| 20260502182230 | 67 | 327 | 0.0 | 0.0 | 0.00 | 0.00 | 0.00 | ||
| 20260502181717 | 67 | 317 | 0.0 | 5.0 | 0.00 | 0.00 | 0.00 | ||
| 20260502181204 | 67 | 318 | 0.0 | 6.0 | 0.00 | 0.00 | 0.00 | ||
| 20260502180652 | 67 | 316 | 0.0 | 7.0 | 0.00 | 0.00 | 0.00 | ||
| 20260502180140 | 67 | 316 | 0.0 | 0.0 | 0.00 | 0.00 | 0.00 | ||
| 20260502170418 | 67 | 343 | 0.0 | 0.0 | 0.00 | 0.00 | 0.00 | ||
| 20260502164326 | 66 | 315 | 0.0 | 0.0 | 0.00 | 0.00 | 0.00 | ||
| 20260502163813 | 65 | 6 | 0.0 | 0.0 | 0.00 | 0.00 | 0.00 | ||
| 20260502162747 | 63 | 281 | 0.0 | 0.0 | 0.00 | 0.00 | 0.00 | ||
| 20260502162235 | 62 | 155 | 0.0 | 0.0 | 0.00 | 0.00 | 0.00 | ||
| 20260502161722 | 62 | 169 | 0.0 | 0.0 | 0.00 | 0.00 | 0.00 | ||
| 20260502161209 | 62 | 153 | 0.0 | 0.0 | 0.00 | 0.00 | 0.00 | ||
| 20260502160656 | 62 | 171 | 0.0 | 0.0 | 0.00 | 0.00 | 0.00 | ||
| 20260502160143 | 61 | 171 | 0.0 | 0.0 | 0.00 | 0.00 | 0.00 | ||
| 20260502152000 | 56 | 136 | 0.0 | 0.0 | 0.00 | 0.00 | 0.00 | ||
| 20260502151448 | 56 | 153 | 0.0 | 0.0 | 0.00 | 0.00 | 0.00 | ||
| 20260502150935 | 56 | 190 | 0.0 | 0.0 | 0.00 | 0.00 | 0.00 | ||
| 20260502150422 | 56 | 153 | 0.0 | 3.0 | 0.00 | 0.00 | 0.00 | ||
| 20260502130427 | 31 | 337 | 0.0 | 0.0 | 0.00 | 0.00 | 0.00 | ||
| 20260502123309 | 31 | 102 | 0.0 | 0.0 | 0.00 | 0.00 | 0.00 | ||
| 20260502122757 | 30 | 93 | 0.0 | 0.0 | 0.00 | 0.00 | 0.00 | ||
| 20260502122244 | 30 | 315 | 0.0 | 0.0 | 0.00 | 0.00 | 0.00 | ||
| 20260502121731 | 29 | 323 | 0.0 | 0.0 | 0.00 | 0.00 | 0.00 | ||
| 20260502121218 | 29 | 337 | 0.0 | 0.0 | 0.00 | 0.00 | 0.00 | ||
| 20260502120705 | 30 | 337 | 0.0 | 0.0 | 0.00 | 0.00 | 0.00 | ||
| 20260502120152 | 30 | 337 | 0.0 | 0.0 | 0.00 | 0.00 | 0.00 | ||
| 20260502115640 | 30 | 337 | 0.0 | 0.0 | 0.00 | 0.00 | 0.00 | ||
| 20260502115127 | 30 | 114 | 0.0 | 0.0 | 0.00 | 0.00 | 0.00 | ||
| 20260502114614 | 30 | 99 | 0.0 | 0.0 | 0.00 | 0.00 | 0.00 | ||
| 20260502114101 | 30 | 124 | 0.0 | 0.0 | 0.00 | 0.00 | 0.00 | ||
| 20260502113548 | 31 | 146 | 0.0 | 0.0 | 0.00 | 0.00 | 0.00 | ||
| 20260502113035 | 31 | 123 | 0.0 | 0.0 | 0.00 | 0.00 | 0.00 | ||
| 20260502112522 | 31 | 337 | 0.0 | 0.0 | 0.00 | 0.00 | 0.00 | ||
| 20260502112009 | 31 | 325 | 0.0 | 0.0 | 0.00 | 0.00 | 0.00 | ||
| 20260502111457 | 31 | 337 | 0.0 | 0.0 | 0.00 | 0.00 | 0.00 | ||
| 20260502110431 | 31 | 135 | 0.0 | 0.0 | 0.00 | 0.00 | 0.00 | ||
| 20260502105918 | 31 | 61 | 0.0 | 0.0 | 0.00 | 0.00 | 0.00 | ||
| 20260502105405 | 31 | 191 | 0.0 | 0.0 | 0.00 | 0.00 | 0.00 | ||
| 20260502104853 | 32 | 337 | 0.0 | 0.0 | 0.00 | 0.00 | 0.00 | ||
| 20260502104340 | 32 | 292 | 0.0 | 0.0 | 0.00 | 0.00 | 0.00 | ||
| 20260502103827 | 32 | 337 | 0.0 | 0.0 | 0.00 | 0.00 | 0.00 | ||
| 20260502102801 | 32 | 119 | 0.0 | 0.0 | 0.00 | 0.00 | 0.00 | ||
| 20260502102248 | 32 | 0 | 0.0 | 0.0 | 0.00 | 0.00 | 0.00 | ||
| 20260502101735 | 32 | 337 | 0.0 | 0.0 | 0.00 | 0.00 | 0.00 | ||
| 20260502101223 | 32 | 337 | 0.0 | 0.0 | 0.00 | 0.00 | 0.00 | ||
| 20260502100710 | 33 | 337 | 0.0 | 0.0 | 0.00 | 0.00 | 0.00 | ||
| 20260502100157 | 33 | 337 | 0.0 | 0.0 | 0.00 | 0.00 | 0.00 | ||
| 20260502091501 | 32 | 337 | 0.0 | 0.0 | 0.00 | 0.00 | 0.00 | ||
| 20260502090948 | 32 | 337 | 0.0 | 0.0 | 0.00 | 0.00 | 0.00 | ||
| 20260502071506 | 36 | 202 | 0.0 | 0.0 | 0.00 | 0.00 | 0.00 | ||
| 20260502070953 | 37 | 349 | 0.0 | 0.0 | 0.00 | 0.00 | 0.00 | ||
| 20260502070440 | 37 | 330 | 0.0 | 0.0 | 0.00 | 0.00 | 0.00 | ||
| 20260502065927 | 38 | 26 | 0.0 | 0.0 | 0.00 | 0.00 | 0.00 | ||
| 20260502065415 | 38 | 270 | 0.0 | 0.0 | 0.00 | 0.00 | 0.00 | ||
| 20260502064902 | 39 | 337 | 0.0 | 0.0 | 0.00 | 0.00 | 0.00 | ||
| 20260502064349 | 39 | 108 | 0.0 | 0.0 | 0.00 | 0.00 | 0.00 | ||
| 20260502063836 | 39 | 255 | 0.0 | 0.0 | 0.00 | 0.00 | 0.00 | ||
| 20260502063323 | 39 | 337 | 0.0 | 0.0 | 0.00 | 0.00 | 0.00 | ||
| 20260502062810 | 39 | 337 | 0.0 | 0.0 | 0.00 | 0.00 | 0.00 | ||
| 20260502062258 | 40 | 315 | 0.0 | 0.0 | 0.00 | 0.00 | 0.00 | ||
| 20260502061744 | 40 | 170 | 0.0 | 0.0 | 0.00 | 0.00 | 0.00 | ||
| 20260502061232 | 40 | 106 | 0.0 | 0.0 | 0.00 | 0.00 | 0.00 | ||
| 20260502060719 | 40 | 342 | 0.0 | 0.0 | 0.00 | 0.00 | 0.00 | ||
| 20260502060206 | 41 | 337 | 0.0 | 0.0 | 0.00 | 0.00 | 0.00 | ||
| 20260502055653 | 41 | 337 | 0.0 | 0.0 | 0.00 | 0.00 | 0.00 | ||
| 20260502055141 | 41 | 337 | 0.0 | 0.0 | 0.00 | 0.00 | 0.00 | ||
| 20260502054628 | 41 | 111 | 0.0 | 0.0 | 0.00 | 0.00 | 0.00 | ||
| 20260502054115 | 42 | 78 | 0.0 | 0.0 | 0.00 | 0.00 | 0.00 | ||
| 20260502053602 | 43 | 135 | 0.0 | 0.0 | 0.00 | 0.00 | 0.00 | ||
| 20260502053049 | 43 | 336 | 0.0 | 0.0 | 0.00 | 0.00 | 0.00 | ||
| 20260502052536 | 44 | 337 | 0.0 | 0.0 | 0.00 | 0.00 | 0.00 | ||
| 20260502052023 | 45 | 337 | 0.0 | 0.0 | 0.00 | 0.00 | 0.00 | ||
| 20260502051510 | 45 | 337 | 0.0 | 0.0 | 0.00 | 0.00 | 0.00 | ||
| 20260502050957 | 46 | 141 | 0.0 | 0.0 | 0.00 | 0.00 | 0.00 | ||
| 20260502050445 | 46 | 158 | 0.0 | 0.0 | 0.00 | 0.00 | 0.00 | ||
| 20260502045419 | 45 | 144 | 0.0 | 0.0 | 0.00 | 0.00 | 0.00 | ||
| 20260502044906 | 45 | 111 | 0.0 | 0.0 | 0.00 | 0.00 | 0.00 | ||
| 20260502044353 | 45 | 167 | 0.0 | 0.0 | 0.00 | 0.00 | 0.00 | ||
| 20260502043841 | 44 | 153 | 0.0 | 0.0 | 0.00 | 0.00 | 0.00 | ||
| 20260502043328 | 44 | 337 | 0.0 | 0.0 | 0.00 | 0.00 | 0.00 | ||
| 20260502042815 | 45 | 22 | 0.0 | 0.0 | 0.00 | 0.00 | 0.00 | ||
| 20260502041749 | 45 | 202 | 0.0 | 0.0 | 0.00 | 0.00 | 0.00 | ||
| 20260502041237 | 45 | 270 | 0.0 | 0.0 | 0.00 | 0.00 | 0.00 | ||
| 20260502040723 | 45 | 168 | 0.0 | 0.0 | 0.00 | 0.00 | 0.00 | ||
| 20260502040210 | 46 | 292 | 0.0 | 0.0 | 0.00 | 0.00 | 0.00 | ||
| 20260502035658 | 47 | 0 | 0.0 | 0.0 | 0.00 | 0.00 | 0.00 | ||
| 20260502035145 | 48 | 337 | 0.0 | 0.0 | 0.00 | 0.00 | 0.00 | ||
| 20260502034632 | 49 | 337 | 0.0 | 0.0 | 0.00 | 0.00 | 0.00 | ||
| 20260502034119 | 49 | 337 | 0.0 | 0.0 | 0.00 | 0.00 | 0.00 | ||
| 20260502033606 | 49 | 337 | 0.0 | 0.0 | 0.00 | 0.00 | 0.00 | ||
| 20260502032541 | 49 | 270 | 0.0 | 0.0 | 0.00 | 0.00 | 0.00 | ||
| 20260502032028 | 49 | 45 | 0.0 | 0.0 | 0.00 | 0.00 | 0.00 | ||
| 20260502031515 | 49 | 225 | 0.0 | 2.0 | 0.00 | 0.00 | 0.00 | ||
| 20260502031002 | 49 | 337 | 0.0 | 0.0 | 0.00 | 0.00 | 0.00 | ||
| 20260502030449 | 49 | 337 | 0.0 | 0.0 | 0.00 | 0.00 | 0.00 | ||
| 20260502025936 | 49 | 322 | 0.0 | 0.0 | 0.00 | 0.00 | 0.00 | ||
| 20260502025423 | 48 | 202 | 0.0 | 0.0 | 0.00 | 0.00 | 0.00 | ||
| 20260502024911 | 48 | 180 | 0.0 | 0.0 | 0.00 | 0.00 | 0.00 | ||
| 20260502024358 | 49 | 337 | 0.0 | 0.0 | 0.00 | 0.00 | 0.00 | ||
| 20260502023845 | 49 | 67 | 0.0 | 0.0 | 0.00 | 0.00 | 0.00 | ||
| 20260502023332 | 49 | 337 | 0.0 | 0.0 | 0.00 | 0.00 | 0.00 | ||
| 20260502022819 | 49 | 93 | 0.0 | 0.0 | 0.00 | 0.00 | 0.00 | ||
| 20260502022307 | 50 | 100 | 0.0 | 0.0 | 0.00 | 0.00 | 0.00 | ||
| 20260502021754 | 50 | 337 | 0.0 | 0.0 | 0.00 | 0.00 | 0.00 | ||
| 20260502021241 | 50 | 11 | 0.0 | 0.0 | 0.00 | 0.00 | 0.00 | ||
| 20260502020728 | 51 | 337 | 0.0 | 0.0 | 0.00 | 0.00 | 0.00 | ||
| 20260502020215 | 51 | 157 | 0.0 | 0.0 | 0.00 | 0.00 | 0.00 | ||
| 20260502015149 | 53 | 67 | 0.0 | 0.0 | 0.00 | 0.00 | 0.00 | ||
| 20260502014636 | 54 | 45 | 0.0 | 0.0 | 0.00 | 0.00 | 0.00 | ||
| 20260502014124 | 55 | 337 | 0.0 | 0.0 | 0.00 | 0.00 | 0.00 | ||
| 20260502013611 | 57 | 337 | 0.0 | 0.0 | 0.00 | 0.00 | 0.00 | ||
| 20260502013058 | 58 | 45 | 0.0 | 0.0 | 0.00 | 0.00 | 0.00 | ||
| 20260502012545 | 58 | 337 | 0.0 | 0.0 | 0.00 | 0.00 | 0.00 | ||
| 20260502012032 | 58 | 30 | 0.0 | 0.0 | 0.00 | 0.00 | 0.00 | ||
| 20260502011520 | 58 | 247 | 0.0 | 0.0 | 0.00 | 0.00 | 0.00 | ||
| 20260502011007 | 58 | 78 | 0.0 | 0.0 | 0.00 | 0.00 | 0.00 | ||
| 20260502010454 | 59 | 337 | 0.0 | 0.0 | 0.00 | 0.00 | 0.00 | ||
| 20260502005943 | 61 | 11 | 0.0 | 0.0 | 0.00 | 0.00 | 0.00 | ||
| 20260502005428 | 63 | 155 | 0.0 | 0.0 | 0.00 | 0.00 | 0.00 | ||
| 20260502004915 | 64 | 157 | 0.0 | 0.0 | 0.00 | 0.00 | 0.00 | ||
| 20260502004402 | 63 | 141 | 0.0 | 0.0 | 0.00 | 0.00 | 0.00 | ||
| 20260502003850 | 61 | 125 | 0.0 | 1.0 | 0.00 | 0.00 | 0.00 |